Location: Altamira
(10.5079°N, 66.8544°W)
Time: 09:07:57
(UTC+00:00)

Cosmos 44 Rocket - Pass Details

Date: 08 December 2021
Orbit: 648 x 741 km, 65.1° (Epoch: 24 January)

Event Time Altitude Azimuth Distance (km) Brightness Sun altitude
Rises 23:16:09 0° 347° (NNW) 3,008 6.5 -17.0°
Reaches altitude 10° 23:18:34 10° 353° (N) 2,082 5.6 -17.5°
Maximum altitude 23:23:06 47° 67° (ENE) 863 3.3 -18.6°
Drops below altitude 10° 23:27:33 10° 141° (SE) 2,048 5.5 -19.6°
Sets 23:29:54 0° 147° (SSE) 2,954 6.4 -20.1°
